Temperature
6 5 4 5 6 6 6 7 7 7 9 8 7 7 8 8 8 8 8 8 8 8 8 8 8 8 8 9 9 9 10 10 10 10 10 10 10 10 10 11 11 11 11 11
5 4 5 6 6 6 6 6 6 7 8 7 7 7 7 7 7 7 7 6 7 7 7 7 7 8 8 8 8 9 9 9 9 10 10 10 10 10 10 10 10 11 11 11
3 4 6 5 5 5 5 5 5 5 6 7 6 6 6 7 6 6 6 6 6 6 6 6 6 7 7 7 8 8 8 9 9 9 9 9 9 9 9 9 10 10 10 11
4 5 5 4 4 4 4 5 5 5 4 4 6 4 5 5 5 5 5 5 5 5 5 5 5 6 6 7 7 7 8 8 8 8 9 9 9 9 9 9 9 9 10 10
3 3 3 3 3 4 4 5 5 5 4 4 4 4 3 5 4 4 4 4 4 4 4 4 4 5 5 6 6 7 7 7 8 8 8 8 8 9 9 9 9 9 9 9
3 4 3 3 4 4 4 4 4 4 4 3 3 3 3 3 3 3 3 3 3 3 3 3 4 4 5 5 5 6 7 7 7 7 8 8 8 8 8 8 8 8 8 9
2 3 3 3 2 3 3 2 2 2 2 3 4 3 2 2 2 3 2 2 2 2 2 2 3 3 4 4 5 5 6 6 6 7 7 7 7 7 8 8 8 8 8 8
1 1 2 2 1 1 1 1 1 1 2 2 3 2 1 2 2 1 1 1 1 1 1 1 2 2 3 3 4 4 5 5 6 6 6 7 7 7 7 8 8 8 8 8
-1 -0 2 2 2 1 1 1 1 1 1 1 2 2 1 1 1 0 0 -0 -0 -0 -0 0 1 1 2 2 3 4 4 5 5 5 6 6 6 6 7 7 7 7 8 8
-1 -1 1 2 2 1 1 1 0 -0 0 1 1 1 -0 -1 -1 -1 -1 -1 -2 -1 -1 -1 -0 0 1 2 2 3 3 4 5 5 5 5 6 6 6 6 7 7 7 7
-1 -2 -1 0 -1 -1 -0 -0 -1 -1 -0 -0 0 -1 -1 -1 -2 -2 -2 -2 -2 -2 -2 -1 -1 -1 -0 1 2 2 3 3 4 4 5 5 5 5 6 6 6 7 7 7
-1 -2 -2 -1 -0 -0 -1 -1 -2 -2 -2 -1 -1 -2 -1 -2 -2 -2 -2 -2 -3 -3 -3 -2 -2 -2 -1 -0 1 2 2 3 3 4 4 5 5 5 5 6 6 6 6 7
-2 -3 -3 -2 -1 -1 -2 -2 -3 -3 -2 -2 -2 -2 -2 -2 -2 -2 -3 -3 -3 -3 -3 -3 -2 -2 -2 -1 -0 1 1 2 3 3 4 4 4 4 5 5 5 6 6 6
-1 -3 -4 -3 -3 -3 -3 -3 -3 -3 -4 -3 -3 -3 -3 -3 -3 -3 -3 -3 -4 -4 -4 -4 -3 -3 -2 -2 -1 -0 0 1 2 2 3 3 3 4 4 4 5 5 5 5
-3 -4 -4 -3 -3 -3 -3 -3 -3 -4 -4 -4 -4 -4 -4 -4 -4 -3 -4 -4 -4 -5 -5 -4 -4 -4 -3 -2 -2 -1 -1 0 1 2 2 2 3 3 3 4 4 4 5 5
-4 -4 -4 -4 -3 -3 -3 -3 -3 -4 -4 -4 -4 -4 -4 -4 -4 -4 -4 -5 -5 -5 -5 -5 -5 -4 -4 -3 -2 -2 -1 -0 0 1 1 2 2 2 3 3 3 4 4 4
-4 -5 -4 -4 -3 -3 -4 -4 -4 -4 -5 -5 -5 -5 -4 -5 -5 -5 -5 -5 -5 -6 -6 -6 -5 -5 -4 -4 -3 -2 -2 -1 -0 0 1 1 1 2 2 2 3 3 3 4
-5 -5 -5 -4 -4 -5 -4 -4 -4 -5 -5 -5 -5 -5 -5 -5 -5 -5 -6 -6 -6 -6 -6 -6 -6 -5 -5 -4 -3 -3 -2 -2 -1 -1 -0 0 1 1 1 2 2 2 3 3
-4 -5 -5 -5 -5 -4 -4 -5 -5 -6 -6 -5 -6 -5 -5 -5 -5 -5 -5 -6 -6 -6 -6 -6 -6 -6 -5 -4 -4 -3 -2 -2 -2 -1 -1 -0 0 0 1 1 1 1 2 2
-5 -5 -6 -5 -5 -5 -5 -5 -5 -5 -6 -6 -6 -6 -6 -6 -7 -6 -6 -7 -7 -7 -7 -7 -6 -6 -5 -4 -4 -3 -3 -3 -2 -2 -1 -1 -1 -0 0 0 1 1 1 2
-6 -6 -7 -6 -6 -5 -6 -6 -5 -6 -6 -6 -6 -6 -7 -7 -7 -7 -7 -7 -7 -7 -7 -7 -7 -6 -5 -5 -4 -4 -3 -3 -3 -2 -2 -2 -1 -1 -1 -0 -0 0 1 1
-6 -7 -7 -6 -6 -6 -7 -6 -7 -7 -6 -6 -6 -7 -7 -7 -7 -7 -7 -8 -8 -7 -7 -7 -7 -6 -6 -5 -5 -5 -4 -4 -4 -3 -3 -2 -2 -2 -1 -1 -1 -0 -0 0
-6 -6 -6 -6 -6 -5 -6 -6 -6 -6 -6 -7 -7 -7 -8 -8 -8 -8 -8 -8 -8 -8 -8 -7 -7 -7 -6 -6 -6 -5 -5 -5 -4 -4 -3 -3 -3 -3 -2 -2 -1 -1 -1 -1
-7 -6 -7 -7 -7 -6 -6 -6 -6 -6 -7 -7 -7 -8 -8 -8 -8 -8 -8 -8 -8 -8 -8 -8 -7 -7 -7 -6 -6 -6 -6 -5 -5 -5 -4 -4 -3 -3 -3 -2 -2 -2 -2 -1
-6 -8 -8 -8 -8 -6 -6 -6 -6 -7 -7 -8 -8 -8 -8 -8 -9 -9 -9 -9 -8 -8 -8 -8 -8 -7 -7 -7 -7 -6 -6 -6 -5 -5 -5 -5 -4 -4 -3 -3 -3 -2 -2 -2
-7 -8 -8 -8 -7 -7 -7 -7 -7 -7 -8 -8 -8 -8 -8 -9 -9 -9 -9 -9 -9 -8 -8 -8 -8 -8 -8 -7 -7 -7 -7 -6 -6 -6 -6 -6 -5 -5 -4 -4 -3 -3 -3 -3
Wind_Speed
2 2 2 2 4 6 7 6 7 6 3 4 7 7 3 1 1 2 2 2 2 2 2 2 3 2 1 2 4 4 4 5 4 4 4 4 4 3 3 3 6 6 7 7
2 3 5 5 5 6 6 6 6 4 5 6 5 5 3 2 2 1 2 2 2 3 3 3 3 2 1 1 2 4 4 4 5 4 4 3 4 3 3 3 4 6 6 7
2 5 7 6 6 7 7 5 7 7 7 7 4 5 4 2 0 2 3 3 2 2 2 3 4 3 2 1 1 2 4 4 4 5 4 4 3 3 3 2 3 3 6 7
4 6 7 5 6 8 7 7 8 8 6 4 3 4 3 3 1 2 3 3 4 3 2 2 3 3 3 2 1 0 3 4 4 5 6 7 5 4 3 3 2 3 5 6
4 6 6 6 7 8 7 10 10 8 7 6 4 4 3 2 2 2 3 4 5 5 5 4 4 4 4 3 2 1 1 2 4 5 6 7 5 3 3 4 4 3 3 5
3 3 4 6 8 7 9 8 7 6 5 5 6 4 2 1 2 3 4 4 5 6 6 6 6 5 4 5 3 2 0 1 3 4 5 6 6 6 6 5 5 4 3 3
4 2 3 5 7 6 6 3 1 1 3 4 3 3 1 2 4 4 4 6 6 6 6 6 7 7 5 5 5 3 1 1 2 4 5 5 6 7 7 6 6 5 3 3
6 5 4 5 4 5 5 2 1 2 3 3 2 3 2 3 5 7 7 6 7 8 7 7 7 6 5 5 5 4 3 1 1 3 4 5 5 5 5 5 5 6 4 4
5 4 4 5 5 5 5 2 3 3 4 3 2 2 1 5 8 9 10 9 9 9 9 8 7 7 6 6 5 5 4 2 1 1 3 4 4 5 5 5 4 4 4 4
4 6 5 3 3 2 3 4 3 2 2 3 3 2 1 5 7 9 10 10 10 10 10 9 7 7 6 6 5 5 4 3 2 1 1 2 3 3 4 5 5 5 5 5
4 4 5 3 2 4 3 2 3 3 2 2 3 1 3 4 5 6 8 8 8 8 8 8 8 7 6 6 5 5 4 3 2 1 1 2 3 3 3 4 5 5 5 6
4 3 4 3 0 2 2 3 2 2 3 3 3 2 3 5 6 6 7 7 7 7 8 7 8 7 7 7 6 6 5 3 3 2 1 2 2 2 3 3 4 4 5 5
4 2 4 3 1 3 3 3 3 3 2 3 3 3 3 6 7 7 8 8 8 8 8 8 8 8 7 7 7 6 5 4 3 2 1 1 2 2 2 2 2 3 4 4
4 1 2 3 4 4 5 5 4 2 2 4 3 6 7 8 9 9 8 9 9 8 9 9 9 8 8 7 6 6 6 4 3 2 1 1 2 2 2 2 2 3 3 4
3 3 3 6 7 5 6 6 3 2 3 3 5 6 8 8 8 8 8 9 9 10 10 10 10 9 9 8 7 7 6 4 4 2 1 1 1 2 2 2 2 3 3 4
2 3 4 6 6 4 6 5 4 4 3 4 7 7 5 7 7 8 9 9 10 10 10 11 11 11 10 10 9 8 7 5 4 3 1 1 1 1 2 2 2 2 3 3
2 2 3 4 4 5 5 3 3 2 3 4 6 6 7 8 9 9 10 9 9 9 10 11 11 10 10 10 9 8 7 5 4 3 2 0 0 1 1 1 2 2 3 3
2 3 3 4 4 3 3 2 1 2 4 4 4 5 6 6 7 7 7 8 9 10 11 11 10 10 10 9 9 8 6 4 3 3 2 1 1 1 1 1 2 2 1 2
2 2 3 2 3 5 1 1 1 1 4 2 4 7 7 7 6 5 6 9 10 10 10 10 10 10 10 9 9 8 6 5 4 4 3 2 1 1 1 2 2 1 1 2
0 0 2 3 3 3 2 1 2 0 3 2 4 6 8 8 5 5 9 10 10 10 9 9 10 10 10 10 8 6 6 5 5 5 5 3 2 2 2 2 2 1 2 2
1 2 3 4 4 4 1 2 2 0 4 3 3 4 6 4 4 7 10 10 9 10 10 9 9 9 9 9 7 6 6 6 6 6 5 4 2 2 2 1 1 2 2 2
3 2 2 2 3 5 0 1 2 3 2 3 4 4 5 6 7 8 9 9 10 10 10 9 8 9 9 8 6 6 6 6 6 5 4 4 2 2 1 0 1 1 2 3
4 4 2 4 5 2 2 2 2 1 3 3 3 5 6 7 8 9 9 9 9 9 9 8 8 9 8 7 6 6 7 6 6 5 4 4 3 2 1 0 1 1 2 2
2 1 2 4 5 3 3 2 2 2 3 4 4 5 5 7 8 9 9 9 9 9 8 8 8 8 8 8 7 6 6 6 5 5 4 4 3 2 2 1 0 1 1 2
3 3 3 5 6 5 3 2 2 3 3 4 5 5 5 6 8 8 8 8 8 8 8 7 7 7 8 8 7 7 6 6 5 5 4 4 4 2 2 2 1 1 1 1
3 5 5 5 3 3 3 2 2 3 4 4 5 6 6 6 7 7 7 7 7 7 7 7 6 7 7 7 8 7 6 5 5 5 4 3 3 3 2 2 2 4 2 2
Wind_Direction
48 42 360 314 276 282 281 280 273 274 275 259 243 243 226 221 294 280 268 300 326 316 321 349 4 10 51 121 141 150 157 159 152 152 152 149 152 143 131 122 135 140 149 151
26 4 331 322 315 304 288 285 290 297 290 274 255 253 247 208 228 315 349 330 330 339 348 349 353 5 27 62 129 157 159 166 163 161 161 156 152 149 134 118 137 148 152 151
358 338 341 342 337 315 288 276 284 288 299 267 250 250 232 232 274 322 325 326 328 327 334 336 339 339 346 356 102 159 171 169 168 156 145 135 126 123 128 138 147 151 153 155
343 338 341 345 328 316 292 300 295 283 279 266 228 258 242 231 261 316 323 330 348 351 356 347 334 330 320 314 348 140 172 169 167 162 158 153 154 155 157 161 156 152 152 156
337 349 346 333 316 312 294 301 291 274 267 275 252 244 252 207 269 306 334 356 10 6 4 1 349 332 336 338 347 346 136 173 172 168 166 161 161 156 145 146 150 158 154 158
307 327 352 327 311 313 310 299 287 255 251 251 238 225 274 260 281 313 343 4 11 7 5 3 357 354 351 349 349 344 175 181 179 171 169 168 165 156 151 152 161 165 164 161
329 355 9 350 330 327 335 335 328 256 222 236 218 213 217 18 20 15 13 10 11 10 4 359 358 357 353 354 343 336 319 217 193 183 178 177 171 167 165 167 169 165 166 170
332 328 9 3 342 317 313 307 277 261 255 286 226 200 138 52 39 32 28 22 15 12 3 358 353 353 351 351 351 339 335 324 232 198 190 180 174 172 173 171 170 172 176 176
335 313 338 345 334 339 330 316 290 282 278 257 226 170 124 22 29 23 19 18 10 4 360 353 352 352 353 348 346 337 329 334 319 241 203 187 182 179 173 172 175 174 168 166
314 299 306 330 331 358 321 317 325 304 296 275 255 233 306 352 3 9 13 9 2 357 354 351 350 348 345 341 342 344 329 317 300 268 207 197 194 189 181 176 179 177 172 167
318 297 298 315 347 339 334 339 327 289 271 277 285 314 11 12 15 10 7 1 355 351 348 348 347 342 343 344 345 346 332 333 323 291 228 192 200 199 190 183 182 182 177 175
341 311 289 282 19 18 21 354 337 302 300 284 283 289 12 23 15 13 360 354 354 355 353 354 352 347 349 347 347 345 338 329 320 304 270 199 192 189 190 186 184 182 185 184
339 322 307 313 4 15 355 356 346 304 294 280 268 272 353 5 4 2 355 353 352 355 356 356 354 351 349 346 343 344 337 336 329 321 295 189 180 184 191 194 187 182 185 189
342 302 241 270 299 317 312 317 325 313 273 286 269 286 325 348 348 348 353 351 347 350 353 353 351 348 344 340 338 341 332 334 334 319 284 225 197 190 198 198 194 189 188 193
344 276 265 274 287 297 300 303 309 277 262 265 285 300 319 339 335 337 346 346 347 350 348 346 344 342 341 339 337 341 328 329 333 311 262 241 221 194 190 185 193 191 189 200
329 293 295 283 266 271 294 296 283 274 274 273 289 293 319 331 338 342 344 344 343 341 343 342 339 338 338 338 336 336 323 324 323 315 269 263 237 210 193 190 186 188 191 195
285 294 295 284 302 308 291 268 236 257 278 276 279 290 329 335 340 340 336 337 337 341 343 340 336 332 332 331 331 328 320 322 321 319 310 277 252 241 220 210 189 195 194 190
266 288 269 289 322 273 243 78 99 267 285 293 296 317 334 332 329 332 340 346 346 343 338 334 331 331 330 330 330 325 322 328 329 328 331 310 282 261 243 206 194 203 188 183
224 249 280 289 286 271 235 63 41 297 302 319 322 330 335 335 330 340 10 1 346 338 334 330 329 328 329 329 330 328 334 343 346 341 331 304 278 262 253 223 208 200 183 182
279 197 261 272 277 272 268 5 355 9 285 357 356 334 333 342 335 320 343 341 334 333 333 332 331 330 333 333 335 340 346 347 342 332 325 310 289 272 250 236 215 207 191 180
232 226 235 255 254 269 294 329 42 132 273 336 335 323 328 319 284 300 323 329 330 328 330 332 332 331 331 332 339 345 347 340 331 328 330 323 305 292 275 261 229 189 179 161
201 220 223 228 241 263 39 82 181 244 323 332 323 322 317 309 308 313 321 325 327 328 330 333 333 331 330 336 343 343 340 335 335 338 339 331 321 309 296 279 259 195 163 152
205 205 215 211 225 249 171 200 238 337 324 320 325 322 319 313 311 316 319 321 323 325 328 331 332 330 335 345 350 344 339 342 343 347 346 339 337 346 336 225 215 171 155 156
231 201 227 260 268 271 256 259 288 312 309 317 324 320 318 308 310 314 318 320 322 323 327 332 334 336 340 345 349 347 343 349 353 352 348 344 353 2 5 359 7 113 141 158
236 192 228 252 276 295 272 264 290 310 317 317 315 311 307 306 307 310 313 315 318 321 326 329 332 337 339 341 345 348 352 357 359 355 354 355 356 360 4 13 22 47 77 144
205 199 211 240 247 233 275 304 323 315 309 309 313 312 311 307 304 310 308 310 314 317 322 328 336 339 339 342 342 346 352 356 358 355 355 354 351 356 2 17 27 32 52 52
Height
1489 1492 1492 1490 1489 1488 1485 1483 1482 1480 1479 1481 1483 1483 1484 1485 1486 1487 1489 1490 1490 1491 1492 1492 1493 1494 1495 1497 1498 1500 1503 1505 1508 1510 1513 1516 1518 1522 1525 1528 1530 1533 1536 1538
1492 1494 1492 1489 1488 1487 1485 1484 1483 1481 1480 1481 1482 1482 1482 1483 1486 1488 1488 1488 1489 1489 1489 1490 1491 1491 1493 1494 1496 1498 1500 1503 1505 1508 1511 1514 1516 1519 1522 1525 1528 1531 1533 1536
1497 1497 1492 1491 1490 1488 1486 1487 1486 1485 1482 1479 1481 1482 1483 1483 1485 1486 1487 1487 1488 1488 1488 1488 1489 1490 1491 1492 1494 1495 1498 1500 1503 1506 1508 1511 1515 1517 1520 1522 1525 1528 1531 1533
1497 1496 1494 1493 1493 1492 1489 1485 1484 1483 1486 1485 1483 1488 1484 1483 1484 1484 1485 1486 1486 1487 1488 1488 1488 1488 1489 1490 1492 1494 1495 1498 1500 1503 1505 1508 1510 1513 1516 1519 1522 1525 1528 1531
1500 1498 1497 1497 1495 1493 1490 1485 1484 1483 1485 1487 1484 1489 1488 1482 1484 1485 1486 1486 1486 1486 1487 1487 1487 1487 1488 1488 1489 1491 1493 1495 1497 1500 1503 1505 1508 1511 1514 1517 1520 1522 1525 1528
1501 1499 1499 1499 1496 1493 1489 1485 1482 1482 1484 1491 1485 1488 1490 1487 1487 1486 1486 1486 1486 1486 1486 1485 1485 1486 1486 1487 1487 1489 1490 1492 1494 1497 1500 1502 1505 1508 1511 1514 1517 1520 1522 1525
1502 1500 1501 1500 1498 1494 1493 1494 1495 1493 1491 1487 1481 1486 1494 1490 1488 1487 1487 1487 1486 1486 1485 1484 1483 1483 1483 1484 1485 1486 1487 1489 1491 1493 1496 1499 1502 1505 1508 1511 1514 1516 1519 1522
1511 1508 1504 1503 1504 1503 1499 1499 1504 1501 1492 1486 1482 1487 1494 1490 1489 1489 1488 1488 1487 1486 1485 1484 1483 1482 1482 1482 1483 1484 1485 1486 1488 1490 1493 1496 1499 1502 1505 1508 1511 1513 1516 1519
1520 1513 1506 1505 1504 1503 1502 1501 1499 1501 1494 1493 1487 1488 1492 1490 1490 1490 1489 1488 1487 1487 1485 1484 1483 1482 1481 1481 1481 1482 1482 1484 1485 1488 1490 1492 1496 1499 1502 1505 1508 1511 1514 1517
1522 1519 1509 1506 1505 1505 1505 1503 1503 1503 1501 1494 1488 1489 1496 1496 1495 1493 1492 1491 1489 1487 1485 1484 1482 1481 1480 1479 1479 1480 1480 1481 1483 1484 1487 1489 1492 1495 1499 1502 1505 1508 1511 1513
1521 1523 1514 1509 1510 1510 1508 1507 1507 1505 1502 1501 1497 1502 1500 1499 1497 1496 1494 1493 1491 1488 1486 1484 1481 1480 1479 1478 1477 1477 1478 1479 1480 1481 1484 1487 1489 1492 1495 1498 1501 1505 1508 1510
1523 1523 1520 1512 1510 1509 1510 1511 1512 1513 1509 1504 1504 1510 1501 1499 1498 1496 1495 1493 1491 1488 1486 1483 1481 1479 1477 1476 1475 1474 1475 1476 1477 1478 1480 1483 1486 1489 1492 1494 1498 1501 1504 1507
1525 1526 1524 1516 1516 1514 1513 1513 1514 1513 1511 1508 1508 1510 1501 1500 1498 1497 1496 1493 1491 1488 1485 1482 1480 1478 1476 1474 1473 1472 1472 1473 1474 1475 1477 1480 1482 1485 1488 1491 1493 1497 1500 1503
1525 1527 1529 1528 1522 1520 1517 1515 1514 1514 1516 1512 1510 1507 1503 1502 1500 1497 1496 1494 1491 1488 1485 1482 1479 1477 1475 1473 1472 1470 1470 1470 1471 1473 1474 1477 1479 1481 1485 1487 1490 1493 1496 1499
1527 1527 1525 1523 1518 1517 1516 1515 1514 1516 1515 1515 1511 1508 1506 1504 1501 1499 1496 1494 1490 1487 1484 1481 1479 1476 1473 1471 1470 1468 1468 1468 1468 1470 1471 1473 1476 1478 1481 1484 1487 1489 1492 1495
1527 1527 1524 1521 1515 1514 1513 1512 1512 1513 1513 1513 1510 1508 1505 1504 1501 1498 1496 1493 1490 1487 1484 1481 1478 1475 1472 1469 1468 1466 1465 1465 1466 1467 1468 1470 1473 1475 1477 1480 1482 1485 1488 1491
1528 1529 1526 1520 1513 1513 1514 1511 1512 1513 1512 1512 1511 1508 1504 1503 1501 1498 1496 1493 1490 1487 1484 1481 1477 1474 1471 1469 1467 1465 1464 1463 1463 1464 1466 1468 1469 1471 1473 1475 1478 1480 1483 1486
1528 1528 1526 1521 1519 1523 1515 1510 1510 1511 1510 1509 1507 1506 1504 1503 1500 1498 1496 1493 1490 1487 1483 1479 1476 1473 1470 1467 1465 1464 1462 1462 1462 1463 1464 1465 1466 1468 1470 1472 1474 1476 1479 1482
1526 1527 1526 1524 1522 1514 1512 1511 1511 1512 1511 1508 1507 1505 1503 1501 1498 1495 1494 1492 1490 1486 1483 1479 1475 1472 1468 1465 1463 1461 1460 1460 1460 1460 1461 1462 1463 1465 1466 1468 1470 1473 1475 1477
1526 1527 1529 1524 1524 1519 1513 1511 1509 1512 1511 1507 1506 1505 1503 1500 1500 1496 1493 1491 1488 1484 1481 1477 1473 1470 1466 1464 1461 1460 1458 1458 1458 1458 1459 1459 1461 1462 1464 1465 1467 1469 1471 1473
1529 1529 1530 1527 1524 1516 1513 1510 1509 1516 1512 1507 1505 1504 1503 1501 1500 1496 1492 1489 1486 1482 1479 1475 1471 1468 1465 1463 1461 1459 1458 1457 1457 1457 1457 1458 1459 1460 1461 1463 1464 1466 1468 1470
1527 1527 1527 1525 1525 1520 1512 1510 1512 1511 1507 1505 1503 1502 1501 1498 1496 1493 1490 1487 1483 1479 1476 1473 1469 1466 1464 1461 1460 1458 1457 1456 1456 1455 1455 1456 1456 1457 1459 1460 1461 1463 1465 1466
1521 1521 1520 1520 1518 1511 1509 1508 1508 1507 1505 1503 1502 1500 1498 1495 1493 1490 1487 1484 1481 1478 1474 1471 1468 1465 1463 1461 1459 1457 1456 1455 1454 1453 1453 1454 1454 1455 1456 1457 1459 1460 1462 1463
1517 1516 1517 1515 1510 1508 1507 1506 1506 1505 1504 1502 1500 1498 1496 1493 1490 1488 1485 1482 1479 1475 1472 1469 1466 1463 1461 1459 1457 1456 1455 1454 1453 1452 1452 1452 1452 1453 1454 1455 1456 1457 1459 1460
1514 1514 1514 1513 1508 1506 1504 1504 1503 1502 1501 1499 1498 1496 1493 1491 1488 1485 1482 1479 1476 1474 1471 1468 1465 1463 1460 1458 1456 1455 1454 1452 1451 1451 1450 1450 1450 1451 1452 1453 1454 1456 1457 1458
1509 1511 1512 1508 1505 1504 1503 1502 1501 1500 1498 1497 1495 1492 1490 1488 1485 1483 1480 1477 1475 1472 1469 1467 1464 1462 1460 1458 1456 1454 1453 1451 1450 1450 1449 1449 1449 1449 1450 1451 1452 1454 1455 1456